141  
NZUS99 KDVN 192010  
HRRRRR  
HOURLY WEATHER ROUNDUP  
NATIONAL WEATHER SERVICE QUAD CITIES IA IL  
300 PM CDT FRI APR 19 2019  
 
NOTE: "FAIR" INDICATES FEW OR NO CLOUDS BELOW 12,000 FEET WITH  
NO SIGNIFICANT WEATHER AND/OR OBSTRUCTIONS TO VISIBILITY.  
------------------------------------------------------------------  
 
CITY SKY/WX TMP DP RH WIND PRES REMARKS  
BURLINGTON SUNNY 61 29 29 N21G33 29.89F  
CEDAR RAPIDS FAIR 60 26 27 N17G28 29.94F  
DAVENPORT FAIR 62 24 23 N22G31 29.91F  
DUBUQUE FAIR 59 23 25 N20G29 29.92F  
IOWA CITY FAIR 62 24 23 N24G36 29.95F  
MOLINE FAIR 62 25 24 N18G28 29.88F  
------------------------------------------------------------------  
THE STATIONS BELOW ARE NOT NWS STATIONS AND ARE NOT SUBJECT TO NWS  
QUALITY CONTROL. SOME STATIONS DO NOT REPORT WEATHER SUCH AS FOG.  
* - STATIONS THAT REPORT TMP AND DP IN WHOLE DEGREES CELSIUS, WHICH  
ARE THEN CONVERTED TO FAHRENHEIT.  
------------------------------------------------------------------  
 
CITY SKY/WX TMP DP RH WIND PRES REMARKS  
CLINTON FAIR 60 28 29 N25G32 29.90F  
FAIRFIELD * SUNNY 61 23 23 N21G30 29.93F  
FORT MADISON * SUNNY 61 30 31 N18G30 29.90F  
FREEPORT FAIR 58 25 27 N21G32 29.90F  
INDEPENDENCE * FAIR 62 29 28 N16G28 29.97S  
KEOKUK * SUNNY 59 27 29 N15G31 29.89F  
MACOMB SUNNY 59 31 35 N23G33 29.88F  
MONTICELLO * FAIR 59 23 25 N15G26 29.93F  
MT PLEASANT SUNNY 63 28 27 N21G31 29.91F  
MUSCATINE * FAIR 63 23 22 N23 29.92F  
SAVANNA FAIR 61 25 25 N16G25 29.89F  
STERLING/R.F. NOT AVBL  
VINTON * FAIR 62 27 26 N13G24 29.96F  
WASHINGTON * SUNNY 61 23 23 N26G33 29.93F  
------------------------------------------------------------------  
 
 
CLICK HERE TO GO TO PREVIOUS BULLETINS.

The Nexlab IL Page
The Nexlab IA Page
The Nexlab MO Page Main Text Page